Immokalee Regional Airport [I, FL

8:36 PM EDT on April 21, 2018 (GMT -0400)
Immokalee

Weather History for KIMM - May, 2014

Change the Weather History Date:

Saturday, May 10, 2014

  Actual Average (KRSW) Record (KRSW)
Temperature  
Mean Temperature 80 °F -  
Max Temperature 93 °F 87 °F 96 °F (2002)
Min Temperature 66 °F 67 °F 54 °F (1960)
Cooling Degree Days 14    
Growing Degree Days 30 (Base 50)    
Moisture  
Dew Point 71 °F    
Average Humidity 66    
Maximum Humidity 100    
Minimum Humidity 41    
Precipitation  
Precipitation 0.00 in - - ()
Sea Level Pressure  
Sea Level Pressure 30.10 in    
Wind  
Wind Speed 5 mph (ESE)    
Max Wind Speed 16 mph    
Max Gust Speed 18 mph    
Visibility 7 miles    
Events      
Averages and records for this station are not official NWS values.
T = Trace of Precipitation, MM = Missing Value Source: NWS Daily Summary

Daily Weather History Graph

Daily Weather History Graph

Search for Another Location

Airport or City:

Astronomy

May. 10, 2014 Rise Set
Actual Time 6:41 AM EDT 8:02 PM EDT
Civil Twilight 6:16 AM EDT 8:27 PM EDT
Nautical Twilight 5:47 AM EDT 8:57 PM EDT
Astronomical Twilight 5:16 AM EDT 9:27 PM EDT
Moon 4:19 PM EDT (5/10) 3:48 AM EDT (5/10)
Length of Visible Light 14h 10m
Length of Day
13h 21m
Waxing Gibbous, 82% of the Moon is Illuminated
May 10
Waxing Gibbous
May 14
Full
May 21
Last Quarter
May 28
New
Jun 5
First Quarter

Hourly Weather History & Observations

Time (EDT) Temp. Heat Index Dew Point Humidity Pressure Visibility Wind Dir Wind Speed Gust Speed Precip Events Conditions
12:15 AM 71.6 °F - 71.6 °F 100% 30.12 in 7.0 mi Calm Calm - 0.00 in   Clear
12:35 AM 69.8 °F - 69.8 °F 100% 30.12 in 7.0 mi Calm Calm - 0.00 in   Clear
12:55 AM 69.8 °F - 69.8 °F 100% 30.12 in 7.0 mi Calm Calm - 0.00 in   Clear
1:15 AM 69.8 °F - - N/A% 30.11 in 7.0 mi Calm Calm - 0.00 in   Clear
1:35 AM 68.0 °F - - N/A% 30.11 in 7.0 mi Calm Calm - 0.00 in   Clear
2:15 AM 66.2 °F - - N/A% 30.10 in 5.0 mi Calm Calm - 0.00 in   Clear
2:35 AM 68.0 °F - - N/A% 30.09 in 5.0 mi East 5.8 mph - 0.00 in   Clear
2:55 AM 69.8 °F - - N/A% 30.08 in 6.0 mi East 6.9 mph - 0.00 in   Clear
3:15 AM 69.8 °F - - N/A% 30.08 in 7.0 mi East 5.8 mph - 0.00 in   Clear
3:35 AM 69.8 °F - - N/A% 30.08 in 7.0 mi Calm Calm - 0.00 in   Scattered Clouds
3:55 AM 69.8 °F - - N/A% 30.09 in 6.0 mi Calm Calm - 0.00 in   Scattered Clouds
4:15 AM 69.8 °F - - N/A% 30.09 in 6.0 mi Calm Calm - 0.00 in   Mostly Cloudy
4:35 AM 69.8 °F - - N/A% 30.09 in 6.0 mi ENE 4.6 mph - 0.00 in   Overcast
4:55 AM 69.8 °F - - N/A% 30.09 in 7.0 mi Calm Calm - 0.00 in   Mostly Cloudy
5:15 AM 69.8 °F - - N/A% 30.09 in 7.0 mi Calm Calm - 0.00 in   Partly Cloudy
5:35 AM 69.8 °F - - N/A% 30.10 in 6.0 mi Calm Calm - 0.00 in   Partly Cloudy
5:55 AM 69.8 °F - - N/A% 30.10 in 5.0 mi Calm Calm - 0.00 in   Partly Cloudy
6:15 AM 68.0 °F - - N/A% 30.10 in 5.0 mi Calm Calm - 0.00 in   Clear
6:35 AM 66.2 °F - - N/A% 30.11 in 5.0 mi Calm Calm - 0.00 in   Clear
6:55 AM 66.2 °F - - N/A% 30.12 in 2.5 mi Calm Calm - 0.00 in   Partly Cloudy
7:15 AM 68.0 °F - - N/A% 30.13 in 3.0 mi Calm Calm - 0.00 in   Mostly Cloudy
7:35 AM 68.0 °F - - N/A% 30.14 in 3.0 mi Calm Calm - 0.00 in   Mostly Cloudy
7:55 AM 69.8 °F - - N/A% 30.15 in 4.0 mi Calm Calm - 0.00 in   Mostly Cloudy
8:15 AM 71.6 °F - - N/A% 30.15 in 5.0 mi ENE 5.8 mph - 0.00 in   Mostly Cloudy
8:35 AM 73.4 °F - - N/A% 30.15 in 6.0 mi East 6.9 mph - 0.00 in   Scattered Clouds
9:15 AM 78.8 °F - 77.0 °F 94% 30.16 in 7.0 mi ESE 8.1 mph - 0.00 in   Clear
9:35 AM 80.6 °F 87.1 °F 77.0 °F 89% 30.16 in 6.0 mi ESE 9.2 mph - 0.00 in   Clear
9:55 AM 82.4 °F 89.5 °F 75.2 °F 79% 30.16 in 7.0 mi ESE 9.2 mph - 0.00 in   Clear
10:15 AM 82.4 °F 88.2 °F 73.4 °F 74% 30.16 in 7.0 mi SSE 10.4 mph - 0.00 in   Clear
10:35 AM 84.2 °F 89.6 °F 71.6 °F 66% 30.16 in 7.0 mi SE 13.8 mph - 0.00 in   Partly Cloudy
10:55 AM 87.8 °F 93.8 °F 71.6 °F 58% 30.16 in 6.0 mi SE 11.5 mph - 0.00 in   Partly Cloudy
11:15 AM 86.0 °F 91.8 °F 71.6 °F 62% 30.16 in 7.0 mi SE 11.5 mph - 0.00 in   Scattered Clouds
11:35 AM 87.8 °F 93.8 °F 71.6 °F 58% 30.16 in 6.0 mi SE 10.4 mph 18.4 mph 0.00 in   Scattered Clouds
11:55 AM 87.8 °F 93.8 °F 71.6 °F 58% 30.15 in 6.0 mi ESE 11.5 mph - 0.00 in   Scattered Clouds
12:15 PM 89.6 °F 94.7 °F 69.8 °F 52% 30.15 in 7.0 mi SE 11.5 mph - 0.00 in   Scattered Clouds
12:35 PM 89.6 °F 94.7 °F 69.8 °F 52% 30.14 in 6.0 mi SE 10.4 mph 16.1 mph 0.00 in   Mostly Cloudy
12:55 PM 91.4 °F 96.8 °F 69.8 °F 49% 30.14 in 7.0 mi SE 9.2 mph - 0.00 in   Scattered Clouds
1:15 PM 89.6 °F 94.7 °F 69.8 °F 52% 30.12 in 7.0 mi SE 9.2 mph - 0.00 in   Partly Cloudy
1:35 PM 91.4 °F 96.8 °F 69.8 °F 49% 30.11 in 7.0 mi SE 9.2 mph - 0.00 in   Scattered Clouds
1:55 PM 91.4 °F 96.8 °F 69.8 °F 49% 30.10 in 7.0 mi East 11.5 mph - 0.00 in   Scattered Clouds
2:15 PM 91.4 °F 94.0 °F 66.2 °F 43% 30.09 in 7.0 mi SE 13.8 mph - 0.00 in   Partly Cloudy
2:35 PM 93.2 °F 96.2 °F 66.2 °F 41% 30.09 in 7.0 mi SE 10.4 mph 18.4 mph 0.00 in   Partly Cloudy
2:55 PM 91.4 °F 96.8 °F 69.8 °F 49% 30.08 in 8.0 mi East 9.2 mph - 0.00 in   Partly Cloudy
3:15 PM 93.2 °F 98.8 °F 69.8 °F 46% 30.07 in 7.0 mi ESE 9.2 mph - 0.00 in   Scattered Clouds
3:35 PM 91.4 °F 95.4 °F 68.0 °F 46% 30.06 in 8.0 mi SE 9.2 mph 18.4 mph 0.00 in   Partly Cloudy
3:55 PM 93.2 °F 98.8 °F 69.8 °F 46% 30.05 in 6.0 mi ESE 13.8 mph - 0.00 in   Scattered Clouds
4:15 PM 93.2 °F 97.7 °F 68.0 °F 44% 30.05 in 7.0 mi SE 11.5 mph 18.4 mph 0.00 in   Scattered Clouds
4:35 PM 91.4 °F 95.4 °F 68.0 °F 46% 30.04 in 6.0 mi SE 12.7 mph - 0.00 in   Scattered Clouds
4:55 PM 93.2 °F 97.7 °F 68.0 °F 44% 30.04 in 7.0 mi SE 11.5 mph - 0.00 in   Partly Cloudy
5:15 PM 91.4 °F 96.8 °F 69.8 °F 49% 30.04 in 7.0 mi SE 10.4 mph - 0.00 in   Partly Cloudy
5:35 PM 93.2 °F 97.7 °F 68.0 °F 44% 30.04 in 7.0 mi SSE 11.5 mph 17.3 mph 0.00 in   Partly Cloudy
5:55 PM 91.4 °F 95.4 °F 68.0 °F 46% 30.04 in 9.0 mi SE 11.5 mph - 0.00 in   Partly Cloudy
6:35 PM 89.6 °F 93.4 °F 68.0 °F 49% 30.04 in 7.0 mi SE 16.1 mph - 0.00 in   Partly Cloudy
7:15 PM 87.8 °F 91.4 °F 68.0 °F 52% 30.04 in 6.0 mi SE 10.4 mph - 0.00 in   Clear
7:35 PM 86.0 °F 89.4 °F 68.0 °F 55% 30.05 in 6.0 mi SE 11.5 mph - 0.00 in   Clear
7:55 PM 84.2 °F 88.4 °F 69.8 °F 62% 30.06 in 7.0 mi SE 9.2 mph - 0.00 in   Partly Cloudy
8:15 PM 82.4 °F 87.2 °F 71.6 °F 70% 30.06 in 7.0 mi SE 9.2 mph - 0.00 in   Clear
8:35 PM 82.4 °F 87.2 °F 71.6 °F 70% 30.07 in 8.0 mi ESE 5.8 mph - 0.00 in   Clear
9:15 PM 78.8 °F - 71.6 °F 78% 30.09 in 8.0 mi SE 6.9 mph - 0.00 in   Clear
9:35 PM 78.8 °F - 71.6 °F 78% 30.10 in 8.0 mi ESE 5.8 mph - 0.00 in   Scattered Clouds
9:55 PM 78.8 °F - 73.4 °F 83% 30.10 in 9.0 mi ESE 6.9 mph - 0.00 in   Scattered Clouds
10:15 PM 77.0 °F - 73.4 °F 89% 30.11 in 9.0 mi ESE 6.9 mph - 0.00 in   Clear
10:35 PM 75.2 °F - 73.4 °F 94% 30.11 in 8.0 mi ESE 5.8 mph - 0.00 in   Clear
10:55 PM 75.2 °F - 73.4 °F 94% 30.11 in 8.0 mi SE 6.9 mph - 0.00 in   Clear
11:15 PM 75.2 °F - 73.4 °F 94% 30.11 in 8.0 mi SE 4.6 mph - 0.00 in   Clear
11:35 PM 73.4 °F - 73.4 °F 100% 30.12 in 8.0 mi ESE 4.6 mph - 0.00 in   Clear
11:55 PM 73.4 °F - 73.4 °F 100% 30.12 in 8.0 mi ESE 5.8 mph - 0.00 in   Clear